This demonstration page uses our WeatherBlox Daily Observations layout. Learn more.

40.92945, -100.16068

Hourly Observations for December 5, 2015

Temp ( °F °C ) Dew Point ( °F °C ) Humidity (%) Winds ( mph kmh ) Pressure ( in mb ) Visibility ( mi km ) Precip ( " mm )
12:15 am 00:15 Clear 40 4.6 35 1.4 80 80 SE 9 15 30.18 1022 10 16.0934 N/A
12:35 am 00:35 Clear 40 4.5 34 1.3 80 80 SE 7 11 30.15 1021 10 16.0934 N/A
12:55 am 00:55 Clear 40 4.4 34 1.3 81 81 SE 7 11 30.18 1022 10 16.0934 N/A
1:15 am 01:15 Clear 40 4.2 34 1.3 82 82 SSE 8 13 30.18 1022 10 16.0934 N/A
1:35 am 01:35 Clear 39 3.9 34 1.2 83 83 SSE 9 15 30.18 1022 10 16.0934 N/A
1:55 am 01:55 Clear 39 3.8 34 1.2 83 83 SSE 12 19 30.18 1022 10 16.0934 N/A
2:15 am 02:15 Clear 38 3.5 34 1 84 84 SSE 12 19 30.18 1022 10 16.0934 N/A
2:35 am 02:35 Clear 38 3.2 34 1 86 86 SSE 12 19 30.18 1022 10 16.0934 N/A
2:55 am 02:55 Clear 38 3.2 34 1 86 86 SSE 12 19 30.15 1021 10 16.0934 N/A
3:15 am 03:15 Clear 38 3.2 34 1 86 86 SSE 15 24 30.15 1021 10 16.0934 N/A
3:35 am 03:35 Clear 38 3.2 34 1 86 86 SSE 15 24 30.15 1021 10 16.0934 N/A
3:55 am 03:55 Clear 38 3.2 34 1 86 86 SSE 15 24 30.15 1021 10 16.0934 N/A
4:15 am 04:15 Clear 38 3.2 34 1.1 86 86 SSE 13 20 30.15 1021 10 16.0934 N/A
4:35 am 04:35 Clear 37 3 34 1 87 87 SE 9 15 30.15 1021 10 16.0934 N/A
4:55 am 04:55 Clear 37 2.7 33 0.6 86 86 SE 7 11 30.15 1021 10 16.0934 N/A
5:15 am 05:15 Clear 37 2.5 33 0.7 88 88 SE 8 13 30.15 1021 10 16.0934 N/A
5:35 am 05:35 Clear 37 2.5 33 0.8 89 89 SE 9 15 30.15 1021 10 16.0934 N/A
5:55 am 05:55 Clear 37 2.7 34 1 89 89 SSE 8 13 30.15 1021 10 16.0934 N/A
6:15 am 06:15 Clear 37 2.6 34 1 89 89 SSE 7 11 30.15 1021 10 16.0934 N/A
6:35 am 06:35 Clear 36 2.2 33 0.6 89 89 SSE 7 11 30.15 1021 10 16.0934 N/A
6:55 am 06:55 Clear 35 1.7 33 0.4 91 91 SE 6 9 30.15 1021 10 16.0934 N/A
7:15 am 07:15 Clear 37 2.5 34 1 90 90 SE 5 7 30.15 1021 10 16.0934 N/A
7:35 am 07:35 Clear 37 2.6 34 1.2 91 91 SE 5 7 30.15 1021 10 16.0934 N/A
7:55 am 07:55 Sunny 37 2.5 34 1 90 90 Calm 30.18 1022 10 16.0934 N/A
8:15 am 08:15 Sunny 37 2.5 34 1 90 90 Calm 30.18 1022 10 16.0934 N/A
8:35 am 08:35 Sunny 36 2.4 34 1.1 91 91 Calm 30.18 1022 10 16.0934 N/A
8:55 am 08:55 Sunny 35 1.9 33 0.4 90 90 Calm 30.18 1022 10 16.0934 N/A
9:15 am 09:15 Sunny 36 2 34 0.9 93 93 Calm 30.18 1022 10 16.0934 N/A
9:35 am 09:35 Sunny 37 2.5 35 1.5 93 93 SE 3 6 30.18 1022 10 16.0934 N/A
9:55 am 09:55 Sunny 39 4 37 2.5 90 90 SE 3 6 30.18 1022 10 16.0934 N/A
10:15 am 10:15 Sunny 40 4.3 36 2.4 88 88 Calm 30.18 1022 10 16.0934 N/A
10:40 am 10:40 Sunny 40 4.7 37 2.5 86 86 Calm 30.15 1021 10 16.0934 N/A
10:55 am 10:55 Sunny 40 4.7 37 2.5 86 86 Calm 30.15 1021 10 16.0934 N/A
11:15 am 11:15 Sunny 41 5 37 2.6 85 85 WNW 5 7 30.18 1022 10 16.0934 N/A
11:35 am 11:35 Sunny 41 5 37 2.5 84 84 WNW 5 7 30.18 1022 10 16.0934 N/A
11:55 am 11:55 Sunny 41 5.2 37 2.6 84 84 WNW 3 6 30.15 1021 10 16.0934 N/A
12:15 pm 12:15 Sunny 42 5.6 37 2.9 83 83 W 5 7 30.15 1021 10 16.0934 N/A
12:35 pm 12:35 Sunny 43 6.2 38 3.1 81 81 W 6 9 30.15 1021 10 16.0934 N/A
12:55 pm 12:55 Sunny 44 6.8 38 3.1 78 78 WSW 3 6 30.15 1021 10 16.0934 N/A
1:15 pm 13:15 Sunny 45 7.2 38 3.1 75 75 N 3 6 30.15 1021 10 16.0934 N/A
1:35 pm 13:35 Sunny 45 7.3 37 2.7 73 73 WNW 7 11 30.15 1021 10 16.0934 N/A
1:55 pm 13:55 Sunny 47 8.1 37 2.9 70 70 WNW 3 6 30.12 1020 10 16.0934 N/A
2:15 pm 14:15 Sunny 48 9 38 3.3 68 68 NW 9 15 30.12 1020 10 16.0934 N/A
2:35 pm 14:35 Sunny 49 9.2 38 3.1 66 66 NNW 7 11 30.12 1020 10 16.0934 N/A
2:55 pm 14:55 Sunny 51 10.3 38 3.3 62 62 NNW 7 11 30.15 1021 10 16.0934 N/A
3:15 pm 15:15 Sunny 51 10.5 36 2.1 56 56 N 9 15 30.15 1021 10 16.0934 N/A
3:35 pm 15:35 Sunny 50 10 36 2 58 58 NNW 9 15 30.15 1021 10 16.0934 N/A
3:55 pm 15:55 Sunny 49 9.7 36 2.1 59 59 N 8 13 30.15 1021 10 16.0934 N/A
4:15 pm 16:15 Sunny 49 9.5 35 1.5 58 58 NNW 10 17 30.18 1022 10 16.0934 N/A
4:35 pm 16:35 Sunny 48 8.9 34 0.9 58 58 N 15 24 30.21 1023 10 16.0934 N/A
4:55 pm 16:55 Sunny 46 8 33 0.5 59 59 N 10 17 30.24 1024 10 16.0934 N/A
5:15 pm 17:15 Clear 44 6.6 33 0.6 66 66 NNW 9 15 30.27 1025 10 16.0934 N/A
5:35 pm 17:35 Mostly Cloudy 44 6.5 33 0.5 66 66 NNW 9 15 30.27 1025 10 16.0934 N/A
5:55 pm 17:55 Cloudy 44 6.7 33 0.3 64 64 NW 8 13 30.3 1026 10 16.0934 N/A
6:15 pm 18:15 Mostly Cloudy 41 5.2 32 0.2 70 70 NW 8 13 30.33 1027 10 16.0934 N/A
6:35 pm 18:35 Mostly Cloudy 40 4.3 32 0.1 74 74 NW 6 9 30.33 1027 10 16.0934 N/A
6:55 pm 18:55 Cloudy 40 4.4 33 0.4 76 76 WNW 8 13 30.33 1027 10 16.0934 N/A
7:15 pm 19:15 Cloudy 42 5.5 33 0.6 71 71 WNW 8 13 30.36 1028 10 16.0934 N/A
7:35 pm 19:35 Cloudy 42 5.6 33 0.7 71 71 WNW 6 9 30.36 1028 10 16.0934 N/A
7:55 pm 19:55 Cloudy with Light Drizzle 42 5.6 33 0.8 72 72 NNW 8 13 30.36 1028 10 16.0934 N/A
8:15 pm 20:15 Cloudy 42 5.7 33 0.5 70 70 NW 8 13 30.36 1028 10 16.0934 N/A
8:35 pm 20:35 Cloudy 42 5.3 33 0.5 71 71 NW 10 17 30.36 1028 10 16.0934 N/A
8:55 pm 20:55 Cloudy 41 5.1 33 0.3 71 71 WNW 12 19 30.39 1029 10 16.0934 N/A
9:15 pm 21:15 Partly Cloudy 41 4.8 32 0 71 71 WNW 12 19 30.39 1029 10 16.0934 N/A
9:35 pm 21:35 Clear 39 4 32 -0.1 75 75 WNW 12 19 30.39 1029 10 16.0934 N/A
9:55 pm 21:55 Mostly Cloudy 39 3.9 32 -0.2 75 75 WNW 10 17 30.39 1029 10 16.0934 N/A
10:15 pm 22:15 Cloudy 39 3.9 32 0 76 76 NW 13 20 30.39 1029 10 16.0934 N/A
10:35 pm 22:35 Cloudy 40 4.3 31 -0.5 71 71 WNW 12 19 30.39 1029 10 16.0934 N/A
10:55 pm 22:55 Mostly Cloudy 38 3.1 31 -0.8 76 76 WNW 13 20 30.45 1031 10 16.0934 N/A
11:15 pm 23:15 Partly Cloudy 35 1.8 30 -1.3 80 80 WNW 12 19 30.45 1031 10 16.0934 N/A
11:35 pm 23:35 Clear 34 1.1 29 -1.5 83 83 WNW 13 20 30.45 1031 10 16.0934 N/A
11:55 pm 23:55 Clear 34 1 29 -1.5 84 84 WNW 10 17 30.45 1031 10 16.0934 N/A

Powered by AerisWeather